This demonstration page uses our WeatherBlox Daily Observations layout. Learn more.

Left ArrowRight Arrow

39.92423, -83.80882

Hourly Observations for June 24, 2022

Temp ( °F °C ) Dew Point ( °F °C ) Humidity (%) Winds ( mph kmh ) Pressure ( in mb ) Visibility ( mi km ) Precip ( " mm )
12:56 am 00:56 Clear 64 17.8 50 10 60 60 E 3 6 30.01 1016 10 16 0.00 0.00
1:56 am 01:56 Clear 63 17.2 50 10 63 63 E 3 6 30.01 1016 10 16 0.00 0.00
2:56 am 02:56 Clear 58 14.4 51 10.6 78 78 E 3 6 30.01 1016 10 16 0.00 0.00
3:56 am 03:56 Clear 57 13.9 52 11.1 83 83 E 5 7 30.01 1016 10 16 0.00 0.00
4:56 am 04:56 Clear 53 11.7 53 11.7 100 100 ENE 5 7 30.02 1017 10 16 0.00 0.00
5:56 am 05:56 Clear 56 13.3 55 12.8 97 97 E 3 6 30.03 1017 10 16 0.00 0.00
6:56 am 06:56 Sunny 56 13.3 56 13.3 100 100 E 5 7 30.05 1018 10 16 0.00 0.00
7:56 am 07:56 Sunny 65 18.3 61 16.1 87 87 E 6 9 30.06 1018 10 16 0.00 0.00
8:56 am 08:56 Sunny 71 21.7 60 15.6 68 68 ESE 9 15 30.08 1019 10 16 0.00 0.00
9:56 am 09:56 Sunny 75 23.9 59 15 58 58 E 7 11 30.09 1019 10 16 0.00 0.00
10:56 am 10:56 Sunny 77 25 58 14.4 52 52 ESE 6 9 30.09 1019 10 16 0.00 0.00
11:56 am 11:56 Sunny 80 26.7 55 12.8 42 42 VRB 5 7 30.09 1019 7 11 0.00 0.00
12:56 pm 12:56 Sunny 81 27.2 53 11.7 38 38 SE 3 6 30.08 1019 10 16 0.00 0.00
1:56 pm 13:56 Sunny 84 28.9 52 11.1 33 33 Calm 30.08 1019 10 16 0.00 0.00
2:56 pm 14:56 Sunny 83 28.3 52 11.1 34 34 Calm 30.06 1018 10 16 0.00 0.00
3:56 pm 15:56 Sunny 85 29.4 52 11.1 32 32 VRB 3 6 30.05 1018 10 16 0.00 0.00
4:56 pm 16:56 Sunny 86 30 52 11.1 31 31 ENE 7 11 30.05 1018 10 16 0.00 0.00
5:56 pm 17:56 Sunny 85 29.4 52 11.1 32 32 N 6 9 30.04 1017 10 16 0.00 0.00
6:56 pm 18:56 Sunny 83 28.3 52 11.1 34 34 ENE 5 7 30.04 1017 10 16 0.00 0.00
7:56 pm 19:56 Sunny 79 26.1 59 15 50 50 ENE 5 7 30.04 1017 10 16 0.00 0.00
8:56 pm 20:56 Sunny 78 25.6 56 13.3 47 47 Calm 30.05 1018 10 16 0.00 0.00
9:56 pm 21:56 Clear 68 20 58 14.4 70 70 E 3 6 30.05 1018 10 16 0.00 0.00
10:56 pm 22:56 Clear 67 19.4 60 15.6 79 79 Calm 30.06 1018 10 16 0.00 0.00
11:56 pm 23:56 Clear 66 18.9 59 15 78 78 ESE 3 6 30.06 1018 10 16 0.00 0.00

Powered by AerisWeather